This is the latest recevied weather packets stored in our database for station/object W1REE. If no packets are shown the sender has not sent any weather packets the latest 10 day(s).
| Time | Temp. | Humidity | Pressure | Rain* | Wind** | Luminosity | Snow |
|---|---|---|---|---|---|---|---|
| 1777883813 | 11.67° C | 30% | 1013.9 hPa | 0 mm | - | 0 W/m² | - |
| 1777883509 | 10.56° C | 33% | 1014 hPa | 0 mm | - | 0 W/m² | - |
| 1777883205 | 10.56° C | 34% | 1013.7 hPa | 0 mm | - | 0 W/m² | - |
| 1777882902 | 10.56° C | 37% | 1014.5 hPa | 0 mm | - | 0 W/m² | - |
| 1777882599 | 10.56° C | 36% | 1014.2 hPa | 0 mm | - | 0 W/m² | - |
| 1777882295 | 10.56° C | 36% | 1014.4 hPa | 0 mm | - | 0 W/m² | - |
| 1777881992 | 10.56° C | 36% | 1014.2 hPa | 0 mm | - | 0 W/m² | - |
| 1777881688 | 11.67° C | 37% | 1014.2 hPa | 0 mm | - | 0 W/m² | - |
| 1777881385 | 12.78° C | 32% | 1014.4 hPa | 0 mm | - | 0 W/m² | - |
| 1777881082 | 12.78° C | 29% | 1014.5 hPa | 0 mm | - | 0 W/m² | - |
| 1777880781 | 12.22° C | 29% | 1014.5 hPa | 0 mm | - | 0 W/m² | - |
| 1777880478 | 11.67° C | 31% | 1014.7 hPa | 0 mm | - | 0 W/m² | - |
| 1777880176 | 11.11° C | 32% | 1015 hPa | 0 mm | - | 0 W/m² | - |
| 1777879874 | 12.78° C | 34% | 1014.8 hPa | 0 mm | - | 0 W/m² | - |
| 1777879572 | 12.78° C | 29% | 1014.8 hPa | 0 mm | - | 0 W/m² | - |
| 1777879268 | 13.33° C | 28% | 1014.8 hPa | 0 mm | - | 0 W/m² | - |
| 1777878966 | 12.78° C | 28% | 1014.6 hPa | 0 mm | - | 0 W/m² | - |
| 1777878663 | 12.22° C | 30% | 1014.7 hPa | 0 mm | - | 0 W/m² | - |
| 1777878360 | 11.67° C | 32% | 1015 hPa | 0 mm | - | 0 W/m² | - |
| 1777878056 | 10.56° C | 36% | 1015 hPa | 0 mm | - | 0 W/m² | - |
| 1777877752 | 11.11° C | 37% | 1014.8 hPa | 0 mm | - | 0 W/m² | - |
| 1777877449 | 11.11° C | 33% | 1014.8 hPa | 0 mm | - | 0 W/m² | - |
| 1777877146 | 11.67° C | 33% | 1015 hPa | 0 mm | - | 0 W/m² | - |
| 1777876844 | 12.22° C | 31% | 1015.2 hPa | 0 mm | - | 0 W/m² | - |
| 1777876541 | 13.33° C | 29% | 1015.4 hPa | 0 mm | - | 0 W/m² | - |
* Rain latest hour (hover to see other rain measurements)
** Current wind speed in m/s (hover to see current wind gust speed)